| time (UTC) | temp C | wind direction | speed KPH | gust KPH | rain 1hr cm | rain 24hr cm | rain mn cm | humidity % | barometer mb |
| 20260502130611 | 25 | 354 | 1.6 | 12.9 | 0.00 | 0.00 | 0.00 | 41 | 1018.6 |
| 20260502123540 | 25 | 257 | 3.2 | 11.3 | 0.00 | 0.00 | 0.00 | 40 | 1018.9 |
| 20260502122612 | 25 | 205 | 4.8 | 9.7 | 0.00 | 0.00 | 0.00 | 40 | 1019.0 |
| 20260502121541 | 25 | 271 | 3.2 | 11.3 | 0.00 | 0.00 | 0.00 | 41 | 1019.2 |
| 20260502120612 | 25 | 226 | 3.2 | 11.3 | 0.00 | 0.00 | 0.00 | 41 | 1019.2 |
| 20260502115540 | 25 | 273 | 3.2 | 11.3 | 0.00 | 0.00 | 0.00 | 41 | 1019.4 |
| 20260502114611 | 25 | 214 | 1.6 | 11.3 | 0.00 | 0.00 | 0.00 | 41 | 1019.5 |
| 20260502113534 | 23 | 269 | 4.8 | 12.9 | 0.00 | 0.00 | 0.00 | 40 | 1019.7 |
| 20260502112605 | 24 | 151 | 3.2 | 9.7 | 0.00 | 0.00 | 0.00 | 39 | 1019.7 |
| 20260502111533 | 25 | 38 | 1.6 | 11.3 | 0.00 | 0.00 | 0.00 | 38 | 1019.8 |
| 20260502110604 | 25 | 54 | 1.6 | 6.4 | 0.00 | 0.00 | 0.00 | 38 | 1020.0 |
| 20260502105534 | 24 | 312 | 1.6 | 3.2 | 0.00 | 0.00 | 0.00 | 39 | 1020.0 |
| 20260502104604 | 23 | 233 | 3.2 | 6.4 | 0.00 | 0.00 | 0.00 | 39 | 1020.2 |
| 20260502103534 | 23 | 247 | 3.2 | 6.4 | 0.00 | 0.00 | 0.00 | 39 | 1020.2 |
| 20260502102605 | 23 | 24 | 1.6 | 6.4 | 0.00 | 0.00 | 0.00 | 41 | 1020.5 |
| 20260502101528 | 23 | 56 | 1.6 | 6.4 | 0.00 | 0.00 | 0.00 | 41 | 1020.6 |
| 20260502100600 | 22 | 303 | 1.6 | 6.4 | 0.00 | 0.00 | 0.00 | 41 | 1020.7 |
| 20260502090545 | 20 | 251 | 3.2 | 11.3 | 0.00 | 0.00 | 0.00 | 44 | 1021.4 |
| 20260502070614 | 17 | 75 | 1.6 | 6.4 | 0.00 | 0.00 | 0.00 | 48 | 1021.9 |
| 20260502065540 | 16 | 273 | 0.0 | 3.2 | 0.00 | 0.00 | 0.00 | 50 | 1022.0 |
| 20260502064612 | 16 | 0 | 1.6 | 3.2 | 0.00 | 0.00 | 0.00 | 52 | 1022.0 |
| 20260502063540 | 15 | 90 | 1.6 | 6.4 | 0.00 | 0.00 | 0.00 | 54 | 1021.9 |
| 20260502062612 | 15 | 0.0 | 0.0 | 0.00 | 0.00 | 0.00 | 59 | 1021.7 | |
| 20260502061540 | 13 | 0.0 | 0.0 | 0.00 | 0.00 | 0.00 | 66 | 1021.9 | |
| 20260502060612 | 12 | 0.0 | 0.0 | 0.00 | 0.00 | 0.00 | 70 | 1021.7 | |
| 20260502055541 | 10 | 0.0 | 3.2 | 0.00 | 0.00 | 0.00 | 75 | 1022.0 | |
| 20260502054611 | 7 | 0.0 | 3.2 | 0.00 | 0.00 | 0.00 | 83 | 1022.0 | |
| 20260502053541 | 7 | 0.0 | 0.0 | 0.00 | 0.00 | 0.00 | 85 | 1022.0 | |
| 20260502052611 | 6 | 0.0 | 0.0 | 0.00 | 0.00 | 0.00 | 88 | 1022.0 | |
| 20260502051540 | 6 | 0.0 | 0.0 | 0.00 | 0.00 | 0.00 | 88 | 1022.0 | |
| 20260502050611 | 5 | 0.0 | 0.0 | 0.00 | 0.00 | 0.00 | 89 | 1022.1 | |
| 20260502045540 | 5 | 0.0 | 0.0 | 0.00 | 0.00 | 0.00 | 90 | 1022.1 | |
| 20260502044611 | 5 | 0.0 | 0.0 | 0.00 | 0.00 | 0.00 | 90 | 1022.1 | |
| 20260502043541 | 5 | 0.0 | 0.0 | 0.00 | 0.00 | 0.00 | 91 | 1022.1 | |
| 20260502040525 | 5 | 0.0 | 0.0 | 0.00 | 0.00 | 0.00 | 90 | 1022.1 | |
| 20260502035556 | 5 | 0.0 | 0.0 | 0.00 | 0.00 | 0.00 | 91 | 1022.0 | |
| 20260502034526 | 5 | 0.0 | 0.0 | 0.00 | 0.00 | 0.00 | 90 | 1022.1 | |
| 20260502033556 | 5 | 0.0 | 0.0 | 0.00 | 0.00 | 0.00 | 90 | 1022.1 | |
| 20260502032526 | 5 | 0.0 | 0.0 | 0.00 | 0.00 | 0.00 | 88 | 1022.0 | |
| 20260502031556 | 6 | 0.0 | 0.0 | 0.00 | 0.00 | 0.00 | 87 | 1022.2 | |
| 20260502030525 | 6 | 0.0 | 0.0 | 0.00 | 0.00 | 0.00 | 88 | 1022.2 | |
| 20260502025550 | 5 | 0.0 | 0.0 | 0.00 | 0.00 | 0.00 | 89 | 1022.2 | |
| 20260502024616 | 5 | 0.0 | 0.0 | 0.00 | 0.00 | 0.00 | 89 | 1022.4 | |
| 20260502023536 | 5 | 0.0 | 0.0 | 0.00 | 0.00 | 0.00 | 88 | 1022.4 | |
| 20260502022607 | 6 | 0.0 | 0.0 | 0.00 | 0.00 | 0.00 | 87 | 1022.3 | |
| 20260502021535 | 6 | 0.0 | 0.0 | 0.00 | 0.00 | 0.00 | 87 | 1022.4 | |
| 20260502020606 | 6 | 0.0 | 0.0 | 0.00 | 0.00 | 0.00 | 85 | 1022.5 | |
| 20260502015529 | 6 | 0.0 | 0.0 | 0.00 | 0.00 | 0.00 | 86 | 1022.6 | |
| 20260502014600 | 6 | 0.0 | 0.0 | 0.00 | 0.00 | 0.00 | 86 | 1022.6 | |
| 20260502013528 | 6 | 0.0 | 0.0 | 0.00 | 0.00 | 0.00 | 86 | 1022.7 | |
| 20260502012600 | 6 | 0.0 | 0.0 | 0.00 | 0.00 | 0.00 | 86 | 1022.8 | |
| 20260502011524 | 6 | 0.0 | 0.0 | 0.00 | 0.00 | 0.00 | 85 | 1022.9 | |
| 20260502010542 | 7 | 0.0 | 0.0 | 0.00 | 0.00 | 0.00 | 82 | 1023.0 | |
| 20260502005603 | 7 | 0.0 | 0.0 | 0.00 | 0.00 | 0.00 | 84 | 1023.1 | |
| 20260502004531 | 6 | 0.0 | 0.0 | 0.00 | 0.00 | 0.00 | 87 | 1023.3 | |
| 20260502003603 | 6 | 0.0 | 0.0 | 0.00 | 0.00 | 0.00 | 86 | 1023.4 | |
| 20260502002531 | 6 | 0.0 | 0.0 | 0.00 | 0.00 | 0.00 | 86 | 1023.4 | |
| 20260502001603 | 6 | 0.0 | 0.0 | 0.00 | 0.00 | 0.00 | 87 | 1023.4 | |
| 20260502000532 | 6 | 0.0 | 0.0 | 0.00 | 0.00 | 0.00 | 87 | 1023.5 | |
| 20260501235603 | 6 | 0.0 | 0.0 | 0.00 | 0.00 | 0.00 | 86 | 1023.5 | |
| 20260501234531 | 6 | 0.0 | 0.0 | 0.00 | 0.00 | 0.00 | 85 | 1023.6 | |
| 20260501233603 | 6 | 0.0 | 0.0 | 0.00 | 0.00 | 0.00 | 84 | 1023.6 | |
| 20260501232531 | 7 | 0.0 | 0.0 | 0.00 | 0.00 | 0.00 | 82 | 1023.8 | |
| 20260501231603 | 7 | 0.0 | 0.0 | 0.00 | 0.00 | 0.00 | 80 | 1023.7 | |
| 20260501230531 | 7 | 0.0 | 0.0 | 0.00 | 0.00 | 0.00 | 82 | 1023.7 | |
| 20260501225603 | 7 | 0.0 | 0.0 | 0.00 | 0.00 | 0.00 | 82 | 1023.8 | |
| 20260501224531 | 7 | 0.0 | 0.0 | 0.00 | 0.00 | 0.00 | 84 | 1024.0 | |
| 20260501223603 | 7 | 0.0 | 0.0 | 0.00 | 0.00 | 0.00 | 84 | 1024.0 | |
| 20260501222531 | 7 | 0.0 | 0.0 | 0.00 | 0.00 | 0.00 | 82 | 1024.1 | |
| 20260501221603 | 7 | 0.0 | 0.0 | 0.00 | 0.00 | 0.00 | 81 | 1024.1 | |
| 20260501220531 | 8 | 0.0 | 0.0 | 0.00 | 0.00 | 0.00 | 79 | 1024.1 | |
| 20260501215603 | 8 | 0.0 | 0.0 | 0.00 | 0.00 | 0.00 | 78 | 1024.1 | |
| 20260501214532 | 8 | 0.0 | 0.0 | 0.00 | 0.00 | 0.00 | 76 | 1024.1 | |
| 20260501213604 | 9 | 0.0 | 0.0 | 0.00 | 0.00 | 0.00 | 75 | 1024.1 | |
| 20260501212532 | 10 | 0.0 | 0.0 | 0.00 | 0.00 | 0.00 | 73 | 1024.1 | |
| 20260501211603 | 10 | 23 | 0.0 | 3.2 | 0.00 | 0.00 | 0.00 | 72 | 1024.0 |
| 20260501210532 | 10 | 23 | 0.0 | 3.2 | 0.00 | 0.00 | 0.00 | 72 | 1024.0 |
| 20260501205557 | 10 | 0.0 | 0.0 | 0.00 | 0.00 | 0.00 | 71 | 1024.1 | |
| 20260501204622 | 10 | 0.0 | 0.0 | 0.00 | 0.00 | 0.00 | 70 | 1024.2 | |
| 20260501203551 | 11 | 0.0 | 0.0 | 0.00 | 0.00 | 0.00 | 68 | 1024.1 | |
| 20260501202615 | 11 | 0.0 | 0.0 | 0.00 | 0.00 | 0.00 | 68 | 1024.3 | |
| 20260501201543 | 11 | 0.0 | 0.0 | 0.00 | 0.00 | 0.00 | 66 | 1024.2 | |
| 20260501200613 | 12 | 0.0 | 0.0 | 0.00 | 0.00 | 0.00 | 64 | 1024.2 | |
| 20260501195542 | 12 | 0.0 | 0.0 | 0.00 | 0.00 | 0.00 | 65 | 1024.2 | |
| 20260501194614 | 12 | 0.0 | 0.0 | 0.00 | 0.00 | 0.00 | 63 | 1024.0 | |
| 20260501193543 | 13 | 0.0 | 0.0 | 0.00 | 0.00 | 0.00 | 60 | 1024.1 | |
| 20260501192614 | 14 | 0.0 | 0.0 | 0.00 | 0.00 | 0.00 | 56 | 1024.0 | |
| 20260501191542 | 15 | 0.0 | 0.0 | 0.00 | 0.00 | 0.00 | 53 | 1023.9 | |
| 20260501185530 | 16 | 0.0 | 0.0 | 0.00 | 0.00 | 0.00 | 51 | 1023.9 | |
| 20260501184552 | 16 | 0.0 | 0.0 | 0.00 | 0.00 | 0.00 | 48 | 1023.8 | |
| 20260501183523 | 17 | 0.0 | 3.2 | 0.00 | 0.00 | 0.00 | 45 | 1023.8 | |
| 20260501182553 | 18 | 0.0 | 0.0 | 0.00 | 0.00 | 0.00 | 43 | 1023.8 | |
| 20260501181522 | 20 | 0.0 | 0.0 | 0.00 | 0.00 | 0.00 | 40 | 1023.8 | |
| 20260501180553 | 20 | 0.0 | 0.0 | 0.00 | 0.00 | 0.00 | 37 | 1023.7 | |
| 20260501175522 | 21 | 0.0 | 3.2 | 0.00 | 0.00 | 0.00 | 35 | 1023.8 | |
| 20260501174552 | 21 | 23 | 0.0 | 3.2 | 0.00 | 0.00 | 0.00 | 34 | 1023.5 |
| 20260501173523 | 21 | 67 | 1.6 | 3.2 | 0.00 | 0.00 | 0.00 | 34 | 1023.7 |
| 20260501172552 | 21 | 69 | 3.2 | 9.7 | 0.00 | 0.00 | 0.00 | 34 | 1023.6 |
| 20260501171522 | 22 | 23 | 1.6 | 3.2 | 0.00 | 0.00 | 0.00 | 33 | 1023.7 |
| 20260501170552 | 22 | 292 | 0.0 | 3.2 | 0.00 | 0.00 | 0.00 | 33 | 1023.8 |
| 20260501165522 | 22 | 82 | 3.2 | 9.7 | 0.00 | 0.00 | 0.00 | 33 | 1023.8 |
| 20260501164552 | 22 | 48 | 1.6 | 6.4 | 0.00 | 0.00 | 0.00 | 32 | 1023.9 |
| 20260501163523 | 23 | 293 | 0.0 | 3.2 | 0.00 | 0.00 | 0.00 | 33 | 1023.8 |
| 20260501162553 | 22 | 54 | 3.2 | 6.4 | 0.00 | 0.00 | 0.00 | 32 | 1024.1 |
| 20260501161523 | 22 | 213 | 3.2 | 9.7 | 0.00 | 0.00 | 0.00 | 31 | 1024.2 |
| 20260501160553 | 23 | 316 | 1.6 | 6.4 | 0.00 | 0.00 | 0.00 | 32 | 1024.2 |
| 20260501155523 | 23 | 178 | 3.2 | 9.7 | 0.00 | 0.00 | 0.00 | 32 | 1024.2 |
| 20260501154552 | 22 | 187 | 3.2 | 9.7 | 0.00 | 0.00 | 0.00 | 32 | 1024.4 |
| 20260501153522 | 23 | 20 | 3.2 | 11.3 | 0.00 | 0.00 | 0.00 | 31 | 1024.4 |
| 20260501152553 | 23 | 271 | 1.6 | 6.4 | 0.00 | 0.00 | 0.00 | 31 | 1024.7 |
| 20260501151522 | 23 | 206 | 3.2 | 6.4 | 0.00 | 0.00 | 0.00 | 32 | 1024.7 |
| 20260501150553 | 22 | 243 | 4.8 | 12.9 | 0.00 | 0.00 | 0.00 | 31 | 1024.9 |